Location: Waco, TX
(31.5480°N, 97.1670°W)
Time: 22:55:40
(UTC-05:00)

ISS - Pass Details

Date: 24 April 2018
Orbit: 403 x 406 km, 51.6° (Epoch: 23 April)

Event Time Altitude Azimuth Distance (km) Brightness Sun altitude
Rises 15:23:14 0° 327° (NNW) 2,322 0.1 57.5°
Reaches altitude 10° 15:25:36 10° 342° (NNW) 1,460 -0.9 57.1°
Maximum altitude 15:28:17 23° 38° (NE) 909 -2.1 56.6°
Drops below altitude 10° 15:30:58 10° 93° (E) 1,457 -1.2 56.0°
Sets 15:33:19 0° 109° (ESE) 2,314 -0.2 55.6°
